#�ϑ�����,���ϕ���,���ϕ���,�ő啗��,�ő啗����������,�ő�u�ԕ���,�ő�u�ԕ�����������
#(�N����),(m/s)   ,(16����),(m/s)   ,(16����)        ,(m/s)       ,(16����)            
2017/3/24 0:01,2.6,2,2.6,3,3.9,9
2017/3/24 0:02,2.4,2,2.6,3,3.8,9
2017/3/24 0:03,2.1,2,2.4,3,2,9
2017/3/24 0:04,2,2,2.1,3,2.1,2
2017/3/24 0:05,1.9,2,2,3,2,2
2017/3/24 0:06,1.9,2,1.9,3,3.3,1
2017/3/24 0:07,1.9,2,1.9,3,3.7,2
2017/3/24 0:08,1.9,2,1.9,3,3.7,3
2017/3/24 0:09,1.7,2,1.9,3,4.5,2
2017/3/24 0:10,1.8,2,1.8,2,4.8,1
2017/3/24 0:11,1.8,2,1.8,2,6.1,2
2017/3/24 0:12,1.9,2,1.9,2,5.4,2
2017/3/24 0:13,2.1,2,2.1,2,4.5,2
2017/3/24 0:14,2.3,2,2.3,2,4.5,2
2017/3/24 0:15,2.3,2,2.3,2,4.9,3
2017/3/24 0:16,2.6,2,2.6,1,7.8,2
2017/3/24 0:17,2.8,2,2.8,2,6,2
2017/3/24 0:18,2.9,2,2.9,2,7.6,3
2017/3/24 0:19,3,1,3,2,6.8,2
2017/3/24 0:20,3.1,1,3.1,1,6.3,16
2017/3/24 0:21,3.3,1,3.3,1,5.7,1
2017/3/24 0:22,3.3,1,3.3,1,4.9,2
2017/3/24 0:23,3.3,1,3.4,1,4.3,15
2017/3/24 0:24,3.3,1,3.3,1,5.2,14
2017/3/24 0:25,3.4,1,3.4,1,5,14
2017/3/24 0:26,3,1,3.3,1,2.4,2
2017/3/24 0:27,2.8,1,3,1,1.5,2
2017/3/24 0:28,2.5,1,2.7,1,1.9,16
2017/3/24 0:29,2.2,1,2.4,1,1.4,5
2017/3/24 0:30,1.9,1,2.2,1,2,5
2017/3/24 0:31,1.7,2,1.9,1,2.6,16
2017/3/24 0:32,1.7,1,1.7,1,5.4,16
2017/3/24 0:33,1.7,1,1.7,1,4.9,16
2017/3/24 0:34,1.6,1,1.7,1,3.1,15
2017/3/24 0:35,1.6,1,1.6,1,5.4,16
2017/3/24 0:36,1.8,1,1.8,1,7.9,16
2017/3/24 0:37,2.1,16,2.1,1,8.3,15
2017/3/24 0:38,2.4,16,2.4,1,6.2,1
2017/3/24 0:39,2.7,16,2.7,16,5.7,16
2017/3/24 0:40,3,16,3,16,9.2,15
2017/3/24 0:41,3.5,16,3.5,16,8.7,16
2017/3/24 0:42,3.3,16,3.5,16,4.7,16
2017/3/24 0:43,3.5,16,3.5,16,7.1,16
2017/3/24 0:44,3.7,16,3.7,16,7.9,16
2017/3/24 0:45,4.1,16,4.1,16,8.3,1
2017/3/24 0:46,4,16,4.1,16,7.2,15
2017/3/24 0:47,3.9,16,4,16,5.2,15
2017/3/24 0:48,3.9,16,3.9,16,6.3,1
2017/3/24 0:49,3.8,16,3.9,16,4.9,16
2017/3/24 0:50,3.6,16,3.8,16,3.7,1
2017/3/24 0:51,3.3,16,3.6,16,2.9,16
2017/3/24 0:52,3.2,16,3.3,16,3.1,15
2017/3/24 0:53,3,16,3.1,16,3.6,15
2017/3/24 0:54,2.8,16,2.9,16,4.3,2
2017/3/24 0:55,2.5,16,2.7,16,3.7,16
2017/3/24 0:56,2.5,16,2.5,16,5.5,15
2017/3/24 0:57,2.6,16,2.6,16,6.1,1
2017/3/24 0:58,2.5,1,2.6,16,5.7,1
2017/3/24 0:59,2.3,1,2.5,16,3.5,1
2017/3/24 1:00,2.3,1,2.3,16,5.1,2
2017/3/24 1:01,2.5,1,2.5,16,5.8,16
2017/3/24 1:02,2.6,1,2.6,16,5.5,2
2017/3/24 1:03,2.8,1,2.8,16,4.5,1
2017/3/24 1:04,2.9,1,2.9,1,6.1,1
2017/3/24 1:05,2.8,1,2.9,1,4.3,1
2017/3/24 1:06,2.5,1,2.8,1,2.5,15
2017/3/24 1:07,2.5,1,2.5,1,5.1,16
2017/3/24 1:08,2.5,1,2.5,1,4.9,1
2017/3/24 1:09,2.6,1,2.6,1,5.7,2
2017/3/24 1:10,2.7,1,2.8,1,5.2,15
2017/3/24 1:11,2.7,1,2.8,1,5.7,16
2017/3/24 1:12,2.8,16,2.8,1,5.1,15
2017/3/24 1:13,2.7,16,2.8,1,3.5,14
2017/3/24 1:14,2.6,16,2.7,1,3.3,15
2017/3/24 1:15,3,16,3,16,8.7,16
2017/3/24 1:16,3.4,16,3.4,16,9,1
2017/3/24 1:17,3.3,16,3.4,16,3.8,1
2017/3/24 1:18,3.3,16,3.4,16,2.6,15
2017/3/24 1:19,3.2,16,3.3,16,4.8,15
2017/3/24 1:20,3.2,16,3.2,16,4.7,16
2017/3/24 1:21,3.2,16,3.2,16,7.7,1
2017/3/24 1:22,3.2,16,3.3,16,8.2,16
2017/3/24 1:23,3.3,16,3.3,16,4.9,16
2017/3/24 1:24,3.3,16,3.3,16,4.2,16
2017/3/24 1:25,3.1,16,3.3,16,4.8,1
2017/3/24 1:26,2.9,16,3.1,16,4.3,15
2017/3/24 1:27,2.8,16,2.9,16,4.1,15
2017/3/24 1:28,2.9,16,2.9,16,3.2,15
2017/3/24 1:29,2.8,16,2.9,16,3.2,16
2017/3/24 1:30,2.6,16,2.8,16,2.5,2
2017/3/24 1:31,2.5,16,2.6,16,3.3,16
2017/3/24 1:32,2.3,16,2.5,16,2.7,16
2017/3/24 1:33,2.2,16,2.3,16,3.5,15
2017/3/24 1:34,2,16,2.1,16,2.5,2
2017/3/24 1:35,1.8,16,2,16,2.5,14
2017/3/24 1:36,1.7,16,1.8,16,2.6,14
2017/3/24 1:37,1.7,16,1.7,16,2.9,1
2017/3/24 1:38,1.7,16,1.7,16,3.3,1
2017/3/24 1:39,1.6,16,1.7,16,3.6,16
2017/3/24 1:40,1.7,16,1.7,16,3.1,15
2017/3/24 1:41,1.5,16,1.7,16,1.5,16
2017/3/24 1:42,1.5,16,1.6,16,2.7,1
2017/3/24 1:43,1.5,16,1.5,16,2.1,1
2017/3/24 1:44,1.6,16,1.6,16,2.9,15
2017/3/24 1:45,1.6,16,1.6,16,3.3,1
2017/3/24 1:46,1.5,16,1.6,16,1.9,15
2017/3/24 1:47,1.5,16,1.5,16,2.6,16
2017/3/24 1:48,1.4,1,1.5,16,2,2
2017/3/24 1:49,1.4,16,1.4,16,2.9,16
2017/3/24 1:50,1.5,1,1.5,16,3.3,1
2017/3/24 1:51,1.6,1,1.6,16,3.6,15
2017/3/24 1:52,1.7,1,1.7,1,4.7,16
2017/3/24 1:53,1.9,16,1.9,16,4.3,15
2017/3/24 1:54,1.9,16,1.9,16,4.8,16
2017/3/24 1:55,2.1,16,2.1,16,5,16
2017/3/24 1:56,2.4,16,2.4,16,7.6,15
2017/3/24 1:57,2.5,16,2.5,16,6,15
2017/3/24 1:58,2.9,16,2.9,16,7.2,16
2017/3/24 1:59,3.2,16,3.2,16,7.4,15
2017/3/24 2:00,3.2,16,3.2,16,3.7,16
2017/3/24 2:01,3.2,16,3.2,16,6,1
2017/3/24 2:02,3.3,16,3.3,16,7.6,1
2017/3/24 2:03,3.3,16,3.3,16,4.9,16
2017/3/24 2:04,3.3,16,3.3,16,3.9,15
2017/3/24 2:05,3.3,16,3.3,16,5.7,15
2017/3/24 2:06,3.4,16,3.4,16,6.1,1
2017/3/24 2:07,3.5,16,3.5,16,7.2,1
2017/3/24 2:08,3.4,16,3.5,16,7.9,16
2017/3/24 2:09,3.2,16,3.4,16,5.5,1
2017/3/24 2:10,3.3,16,3.3,16,4.2,15
2017/3/24 2:11,3.2,16,3.3,16,4.9,16
2017/3/24 2:12,3.3,16,3.3,16,7.2,14
2017/3/24 2:13,3.5,16,3.5,16,8.7,16
2017/3/24 2:14,3.5,16,3.5,16,4.3,14
2017/3/24 2:15,3.5,16,3.5,16,5.7,1
2017/3/24 2:16,3.4,16,3.5,16,5.4,15
2017/3/24 2:17,3.2,16,3.3,16,4.8,16
2017/3/24 2:18,3.1,16,3.2,16,4.2,16
2017/3/24 2:19,3,16,3.1,16,2.6,16
2017/3/24 2:20,3,15,3,16,3.1,16
2017/3/24 2:21,3,15,3,16,4.1,15
2017/3/24 2:22,2.8,15,3,16,3.2,15
2017/3/24 2:23,2.4,15,2.7,16,1.8,14
2017/3/24 2:24,2.4,15,2.4,16,4.5,15
2017/3/24 2:25,2.4,15,2.4,16,5.7,16
2017/3/24 2:26,2.4,15,2.4,16,4.8,1
2017/3/24 2:27,2.5,15,2.5,16,7.4,15
2017/3/24 2:28,2.7,15,2.7,16,9.1,15
2017/3/24 2:29,3.2,15,3.2,15,10.5,16
2017/3/24 2:30,3.6,16,3.6,16,7.7,1
2017/3/24 2:31,3.6,16,3.7,16,6.8,15
2017/3/24 2:32,3.6,16,3.6,16,4.2,15
2017/3/24 2:33,3.6,16,3.6,16,3.7,16
2017/3/24 2:34,4,16,4,16,11.3,14
2017/3/24 2:35,4.1,16,4.1,16,8.4,14
2017/3/24 2:36,4.5,16,4.5,16,10.5,14
2017/3/24 2:37,4.5,16,4.5,16,7.8,16
2017/3/24 2:38,4.7,16,4.7,16,10.2,15
2017/3/24 2:39,4.6,15,4.7,16,9.1,16
2017/3/24 2:40,4.4,15,4.6,16,6.7,14
2017/3/24 2:41,4.2,15,4.3,16,4.8,15
2017/3/24 2:42,4.4,15,4.4,16,6.4,15
2017/3/24 2:43,4.4,15,4.4,16,3,1
2017/3/24 2:44,4.2,15,4.3,16,7.9,14
2017/3/24 2:45,4.1,15,4.2,16,6.5,13
2017/3/24 2:46,3.6,15,4,16,4.4,16
2017/3/24 2:47,3.5,15,3.6,16,5.1,15
2017/3/24 2:48,3.3,15,3.5,15,10.1,15
2017/3/24 2:49,3.2,15,3.4,15,8.2,15
2017/3/24 2:50,3,15,3.2,15,5.2,15
2017/3/24 2:51,2.9,15,2.9,15,3.3,1
2017/3/24 2:52,2.7,15,2.9,15,3,13
2017/3/24 2:53,2.9,15,2.9,15,5,14
2017/3/24 2:54,2.8,15,2.9,15,6,16
2017/3/24 2:55,2.9,15,2.9,15,8.4,15
2017/3/24 2:56,3,15,3,15,7.4,16
2017/3/24 2:57,3,16,3,15,4.4,15
2017/3/24 2:58,2.8,16,3,15,6.7,15
2017/3/24 2:59,2.9,15,2.9,15,7.5,15
2017/3/24 3:00,3.1,15,3.1,15,4.5,16
2017/3/24 3:01,3.2,16,3.2,16,4.2,1
2017/3/24 3:02,3.2,16,3.2,16,2.5,15
2017/3/24 3:03,3.1,16,3.2,16,4.5,14
2017/3/24 3:04,3.2,16,3.2,16,6,15
2017/3/24 3:05,2.8,16,3.1,16,3.9,16
2017/3/24 3:06,2.7,15,2.8,16,3.5,15
2017/3/24 3:07,2.8,15,2.8,16,7.7,1
2017/3/24 3:08,2.9,15,2.9,16,7.5,1
2017/3/24 3:09,2.6,15,2.9,16,6.9,16
2017/3/24 3:10,2.7,15,2.7,16,5.2,13
2017/3/24 3:11,2.8,15,2.8,16,5.7,14
2017/3/24 3:12,2.9,15,2.9,16,4.1,16
2017/3/24 3:13,2.9,15,2.9,16,4.8,16
2017/3/24 3:14,3,15,3,16,6.1,16
2017/3/24 3:15,3.1,15,3.1,15,6.7,1
2017/3/24 3:16,3.4,15,3.4,15,6.7,16
2017/3/24 3:17,3.5,15,3.5,15,6.7,16
2017/3/24 3:18,3.3,15,3.5,15,4.4,16
2017/3/24 3:19,3.4,15,3.4,15,5.8,16
2017/3/24 3:20,3.4,15,3.5,15,5.6,1
2017/3/24 3:21,3.4,16,3.4,15,5.8,16
2017/3/24 3:22,3.5,16,3.5,15,4.5,15
2017/3/24 3:23,3.5,16,3.5,15,7,16
2017/3/24 3:24,3.4,16,3.5,15,5.5,15
2017/3/24 3:25,3.5,16,3.5,15,7.6,16
2017/3/24 3:26,3.4,15,3.5,15,6.9,15
2017/3/24 3:27,3.4,15,3.4,15,6.5,16
2017/3/24 3:28,3.6,15,3.6,15,6.4,15
2017/3/24 3:29,3.6,16,3.6,15,6.2,16
2017/3/24 3:30,3.4,16,3.6,15,3,16
2017/3/24 3:31,3.3,16,3.4,15,4.3,16
2017/3/24 3:32,3.5,16,3.5,15,6.4,16
2017/3/24 3:33,3.8,16,3.8,16,11.1,1
2017/3/24 3:34,4,16,4.1,16,11.3,16
2017/3/24 3:35,4,16,4.1,16,7.4,16
2017/3/24 3:36,4.2,16,4.2,16,10.5,15
2017/3/24 3:37,4.3,16,4.3,16,8.7,15
2017/3/24 3:38,4.5,16,4.5,16,10.7,15
2017/3/24 3:39,4.8,16,4.8,16,9.5,15
2017/3/24 3:40,5,15,5,15,8.2,14
2017/3/24 3:41,5,15,5,15,4.4,13
2017/3/24 3:42,5,15,5,15,5.6,14
2017/3/24 3:43,4.5,15,5,15,4.4,1
2017/3/24 3:44,4.2,15,4.5,15,6.3,16
2017/3/24 3:45,4.3,15,4.3,15,8.6,16
2017/3/24 3:46,4,15,4.3,15,5.8,14
2017/3/24 3:47,3.9,15,4,15,7,15
2017/3/24 3:48,3.6,15,3.9,15,6.8,15
2017/3/24 3:49,3.5,15,3.6,15,9.2,16
2017/3/24 3:50,3.5,15,3.6,15,6.7,16
2017/3/24 3:51,3.6,16,3.6,15,7.6,16
2017/3/24 3:52,3.7,16,3.7,15,6.3,16
2017/3/24 3:53,3.6,16,3.7,15,2.9,3
2017/3/24 3:54,3.4,16,3.6,15,1.8,16
2017/3/24 3:55,3.1,16,3.4,15,1.8,15
2017/3/24 3:56,2.9,16,3.1,15,1.8,1
2017/3/24 3:57,2.8,16,2.9,15,7.5,16
2017/3/24 3:58,2.5,16,2.8,16,7,16
2017/3/24 3:59,2.1,16,2.5,16,2,13
2017/3/24 4:00,1.9,16,2.1,16,1.8,5
2017/3/24 4:01,1.6,16,1.9,16,2.4,3
2017/3/24 4:02,1.6,16,1.6,16,6.5,16
2017/3/24 4:03,1.7,16,1.7,16,7.5,15
2017/3/24 4:04,2.2,16,2.2,16,10.2,16
2017/3/24 4:05,2.5,15,2.5,16,6.3,15
2017/3/24 4:06,2.9,15,2.9,16,11,15
2017/3/24 4:07,3,15,3.1,15,8.7,15
2017/3/24 4:08,3.3,15,3.3,15,8.6,16
2017/3/24 4:09,3.6,16,3.6,15,7.9,16
2017/3/24 4:10,3.8,16,3.8,16,6.4,16
2017/3/24 4:11,3.8,15,3.9,15,5.1,16
2017/3/24 4:12,3.9,16,3.9,15,7.5,15
2017/3/24 4:13,4.1,16,4.1,16,9.9,16
2017/3/24 4:14,4.1,16,4.1,16,8.9,1
2017/3/24 4:15,4.2,16,4.2,16,8.2,15
2017/3/24 4:16,3.9,16,4.2,16,6.1,16
2017/3/24 4:17,4.1,16,4.1,16,7.6,16
2017/3/24 4:18,3.9,16,4.1,16,6.4,1
2017/3/24 4:19,4,16,4,16,8.1,15
2017/3/24 4:20,4,16,4.1,16,3.6,14
2017/3/24 4:21,3.9,16,3.9,16,6.4,15
2017/3/24 4:22,4,16,4,16,7.1,16
2017/3/24 4:23,3.8,16,4,16,4.8,1
2017/3/24 4:24,3.6,16,3.7,16,5.7,16
2017/3/24 4:25,3.5,16,3.6,16,7.5,13
2017/3/24 4:26,3.6,16,3.6,16,5.4,16
2017/3/24 4:27,3.3,16,3.6,16,4.3,15
2017/3/24 4:28,3.1,16,3.3,16,2.5,1
2017/3/24 4:29,2.9,16,3.1,16,5.7,15
2017/3/24 4:30,3,15,3,16,5.6,15
2017/3/24 4:31,3.3,15,3.3,16,6.2,16
2017/3/24 4:32,3.1,16,3.3,16,7,16
2017/3/24 4:33,3,16,3.1,16,4.4,1
2017/3/24 4:34,2.9,16,3,16,4.2,16
2017/3/24 4:35,2.7,16,2.9,16,4.5,15
2017/3/24 4:36,2.5,16,2.7,16,3.5,15
2017/3/24 4:37,2.5,16,2.5,16,3.2,15
2017/3/24 4:38,2.6,15,2.6,15,4.2,15
2017/3/24 4:39,2.6,16,2.7,15,3.6,15
2017/3/24 4:40,2.4,16,2.6,15,3.2,15
2017/3/24 4:41,2.3,15,2.4,15,5,15
2017/3/24 4:42,2.5,15,2.5,16,8.2,14
2017/3/24 4:43,2.7,15,2.7,16,9.7,15
2017/3/24 4:44,3.1,15,3.1,15,10.1,14
2017/3/24 4:45,3.2,15,3.2,15,7.9,15
2017/3/24 4:46,3.4,15,3.4,15,6.7,16
2017/3/24 4:47,3.7,15,3.7,15,7.9,14
2017/3/24 4:48,3.8,15,3.8,15,7.6,1
2017/3/24 4:49,3.9,15,3.9,15,6,16
2017/3/24 4:50,4.1,15,4.1,15,5.7,16
2017/3/24 4:51,4,16,4.1,15,4.8,15
2017/3/24 4:52,3.8,16,4,15,3.9,1
2017/3/24 4:53,3.5,16,3.8,15,3.9,15
2017/3/24 4:54,3.2,16,3.5,15,4.3,1
2017/3/24 4:55,3,16,3.2,15,1.9,1
2017/3/24 4:56,2.9,16,2.9,15,4.9,16
2017/3/24 4:57,2.6,16,2.9,15,4.3,16
2017/3/24 4:58,2.5,16,2.6,15,4.7,14
2017/3/24 4:59,2.4,16,2.5,15,4.9,15
2017/3/24 5:00,2.2,16,2.3,15,4.5,15
2017/3/24 5:01,2.5,16,2.5,16,9.5,14
2017/3/24 5:02,2.4,16,2.4,16,4.7,13
2017/3/24 5:03,2.7,16,2.7,16,8.7,15
2017/3/24 5:04,2.9,16,2.9,16,7.5,14
2017/3/24 5:05,3.2,15,3.2,15,7,16
2017/3/24 5:06,3.2,15,3.3,15,4.4,14
2017/3/24 5:07,3.3,15,3.3,15,6.9,16
2017/3/24 5:08,3.4,15,3.4,15,4.5,15
2017/3/24 5:09,3.5,15,3.5,15,4.4,15
2017/3/24 5:10,3.5,15,3.6,15,3.5,15
2017/3/24 5:11,3.2,15,3.4,15,4.7,16
2017/3/24 5:12,3.5,15,3.5,15,7.2,15
2017/3/24 5:13,3.4,15,3.5,15,6.9,16
2017/3/24 5:14,3.3,15,3.4,15,6.2,15
2017/3/24 5:15,3.3,15,3.3,15,7,15
2017/3/24 5:16,3.3,15,3.3,15,5.4,15
2017/3/24 5:17,3.4,15,3.4,15,8.4,16
2017/3/24 5:18,3.6,15,3.6,15,10,15
2017/3/24 5:19,3.9,15,3.9,15,10.8,16
2017/3/24 5:20,4.1,15,4.1,15,7.8,14
2017/3/24 5:21,4.2,15,4.2,15,5.1,16
2017/3/24 5:22,4.2,16,4.2,15,6.2,15
2017/3/24 5:23,4.3,16,4.3,16,8.5,15
2017/3/24 5:24,4.3,16,4.4,16,5.5,16
2017/3/24 5:25,4.4,16,4.4,16,8.5,16
2017/3/24 5:26,4.4,16,4.5,16,5.8,16
2017/3/24 5:27,4.4,16,4.4,16,10,15
2017/3/24 5:28,4.4,15,4.5,16,8.9,16
2017/3/24 5:29,4.5,15,4.5,16,11.6,15
2017/3/24 5:30,4.8,15,4.8,15,10.3,16
2017/3/24 5:31,4.9,15,4.9,15,8.7,16
2017/3/24 5:32,5.2,15,5.2,15,11.8,15
2017/3/24 5:33,5.2,16,5.3,15,10.1,15
2017/3/24 5:34,5.1,15,5.2,15,6.1,16
2017/3/24 5:35,5.1,15,5.1,15,6.4,15
2017/3/24 5:36,5.3,15,5.3,15,7.9,16
2017/3/24 5:37,5.2,16,5.4,15,5.1,16
2017/3/24 5:38,5.1,16,5.2,15,6.1,16
2017/3/24 5:39,4.8,16,5,15,8.5,16
2017/3/24 5:40,4.3,16,4.7,15,5.1,16
2017/3/24 5:41,4.5,16,4.5,15,7.2,14
2017/3/24 5:42,4.2,16,4.5,15,6.1,15
2017/3/24 5:43,4.2,15,4.2,15,8.4,15
2017/3/24 5:44,4.4,16,4.4,15,8.4,15
2017/3/24 5:45,4.4,16,4.4,15,7.4,16
2017/3/24 5:46,4.4,16,4.4,15,7.8,15
2017/3/24 5:47,4.5,16,4.5,16,8.3,16
2017/3/24 5:48,4.5,16,4.6,16,7.5,15
2017/3/24 5:49,4.5,15,4.5,16,7.1,15
2017/3/24 5:50,4.9,15,4.9,15,10.9,15
2017/3/24 5:51,4.9,16,4.9,15,8.7,15
2017/3/24 5:52,5.1,16,5.1,16,13.1,1
2017/3/24 5:53,5.2,16,5.3,16,9.8,15
2017/3/24 5:54,5.3,15,5.3,16,9.5,15
2017/3/24 5:55,5.2,15,5.3,16,6.3,15
2017/3/24 5:56,5,15,5.2,16,3.8,14
2017/3/24 5:57,4.6,16,5,16,2.6,4
2017/3/24 5:58,4.4,16,4.6,16,3.9,14
2017/3/24 5:59,4.4,16,4.5,16,9.9,16
2017/3/24 6:00,4.2,16,4.4,16,7.7,1
2017/3/24 6:01,4.3,16,4.3,16,8.7,16
2017/3/24 6:02,3.9,15,4.3,16,6.4,15
2017/3/24 6:03,3.8,16,3.8,16,7.2,16
2017/3/24 6:04,3.4,16,3.7,15,5.1,1
2017/3/24 6:05,3.5,15,3.5,15,10.6,15
2017/3/24 6:06,3.8,16,3.8,15,10,15
2017/3/24 6:07,4.2,15,4.2,16,10.7,15
2017/3/24 6:08,4.6,15,4.6,15,9.7,16
2017/3/24 6:09,4.8,15,4.8,15,11.1,16
2017/3/24 6:10,5.2,15,5.2,15,11.9,15
2017/3/24 6:11,5.3,15,5.3,15,9.3,15
2017/3/24 6:12,5.4,15,5.4,15,8.7,16
2017/3/24 6:13,4.9,15,5.4,15,3.2,16
2017/3/24 6:14,5,15,5,15,6.1,16
2017/3/24 6:15,4.9,15,5,15,4.4,16
2017/3/24 6:16,4.6,15,4.9,15,5,16
2017/3/24 6:17,4.2,15,4.6,15,4.2,15
2017/3/24 6:18,3.8,15,4.2,15,4.7,16
2017/3/24 6:19,3.6,15,3.8,15,8.1,16
2017/3/24 6:20,3.4,15,3.6,15,6.8,14
2017/3/24 6:21,3.1,15,3.4,15,5.2,16
2017/3/24 6:22,3,15,3,15,6.7,14
2017/3/24 6:23,3.3,15,3.3,15,6.3,15
2017/3/24 6:24,3.3,15,3.3,15,6.3,15
2017/3/24 6:25,3.3,15,3.4,15,5.2,14
2017/3/24 6:26,3.2,15,3.3,15,2.7,2
2017/3/24 6:27,3.4,15,3.4,15,6.1,15
2017/3/24 6:28,3.3,15,3.4,15,3.8,15
2017/3/24 6:29,3,15,3.3,15,3.2,15
2017/3/24 6:30,2.9,15,3,15,6.1,16
2017/3/24 6:31,2.9,15,2.9,15,6.8,16
2017/3/24 6:32,3,15,3,15,7.5,15
2017/3/24 6:33,3,15,3,15,6.5,15
2017/3/24 6:34,3.1,15,3.1,15,6.1,14
2017/3/24 6:35,3,15,3.1,15,4.4,16
2017/3/24 6:36,3.3,15,3.3,15,6,16
2017/3/24 6:37,3.5,15,3.5,16,9.2,15
2017/3/24 6:38,3.6,16,3.6,16,5.7,16
2017/3/24 6:39,3.7,16,3.7,16,5.7,15
2017/3/24 6:40,3.9,16,3.9,16,9.2,16
2017/3/24 6:41,3.9,16,3.9,16,7.1,16
2017/3/24 6:42,3.8,16,3.8,16,5,15
2017/3/24 6:43,3.7,16,3.8,16,8.5,16
2017/3/24 6:44,3.8,16,3.9,16,9.2,15
2017/3/24 6:45,3.8,16,3.9,16,5.4,16
2017/3/24 6:46,3.7,16,3.8,16,4.9,15
2017/3/24 6:47,3.7,16,3.7,16,9,15
2017/3/24 6:48,4.1,16,4.1,16,9.7,15
2017/3/24 6:49,4.3,16,4.3,16,6.3,16
2017/3/24 6:50,4.1,16,4.2,16,6.5,15
2017/3/24 6:51,4,16,4,16,3.9,14
2017/3/24 6:52,4.1,16,4.1,16,9.8,14
2017/3/24 6:53,4.3,15,4.3,16,11.3,15
2017/3/24 6:54,4.3,15,4.4,15,9.5,15
2017/3/24 6:55,4.5,15,4.5,15,6.2,1
2017/3/24 6:56,4.7,15,4.7,15,8.1,15
2017/3/24 6:57,4.4,15,4.7,15,3.9,14
2017/3/24 6:58,4,15,4.4,15,6,14
2017/3/24 6:59,4,15,4.1,15,7.7,15
2017/3/24 7:00,4.1,15,4.1,15,7,16
2017/3/24 7:01,4.5,15,4.5,15,10.3,16
2017/3/24 7:02,4.4,15,4.5,15,7.7,16
2017/3/24 7:03,4.4,15,4.5,15,7.1,16
2017/3/24 7:04,4.1,16,4.3,15,7.6,1
2017/3/24 7:05,4.1,16,4.1,15,8.2,16
2017/3/24 7:06,4.1,16,4.1,15,6.8,16
2017/3/24 7:07,4.2,16,4.2,15,7.8,15
2017/3/24 7:08,4.3,16,4.3,15,6.7,14
2017/3/24 7:09,4.5,16,4.5,15,10.7,15
2017/3/24 7:10,4.9,16,4.9,16,10.3,15
2017/3/24 7:11,4.6,16,4.9,16,7.7,16
2017/3/24 7:12,4.4,16,4.6,16,3.9,1
2017/3/24 7:13,4.1,16,4.3,16,2.9,14
2017/3/24 7:14,4.1,15,4.1,16,6.4,15
2017/3/24 7:15,4,15,4.1,16,5.4,14
2017/3/24 7:16,4.1,15,4.1,16,7.8,15
2017/3/24 7:17,4.4,15,4.4,16,8.5,15
2017/3/24 7:18,4.4,15,4.5,16,8.5,15
2017/3/24 7:19,4.3,15,4.5,16,8.7,15
2017/3/24 7:20,3.8,15,4.3,16,4.5,15
2017/3/24 7:21,3.8,15,3.8,16,6.5,14
2017/3/24 7:22,4,15,4,15,6.3,15
2017/3/24 7:23,4.2,15,4.2,15,4.8,15
2017/3/24 7:24,4.3,15,4.3,15,11.4,16
2017/3/24 7:25,4.4,15,4.4,15,7.7,16
2017/3/24 7:26,4.4,15,4.4,15,8.2,16
2017/3/24 7:27,4.1,15,4.3,15,7.8,15
2017/3/24 7:28,4,15,4.1,15,6.3,15
2017/3/24 7:29,4,16,4,15,8.5,16
2017/3/24 7:30,4.3,16,4.3,15,9.7,15
2017/3/24 7:31,4.6,16,4.6,16,10.2,15
2017/3/24 7:32,4.7,16,4.7,16,7.9,15
2017/3/24 7:33,4.7,16,4.8,16,5.7,1
2017/3/24 7:34,4.4,15,4.7,16,6,15
2017/3/24 7:35,4.7,15,4.7,16,9.4,15
2017/3/24 7:36,4.4,15,4.7,16,5.2,16
2017/3/24 7:37,4.5,15,4.5,16,7.6,1
2017/3/24 7:38,4.6,15,4.6,16,8.5,16
2017/3/24 7:39,4.6,15,4.6,16,7.9,16
2017/3/24 7:40,4.3,16,4.6,16,5.4,15
2017/3/24 7:41,3.8,15,4.2,16,2.4,13
2017/3/24 7:42,3.4,15,3.7,16,3.9,15
2017/3/24 7:43,3.2,16,3.3,16,2,1
2017/3/24 7:44,3.1,16,3.2,15,5.2,1
2017/3/24 7:45,3,16,3.1,15,9.1,15
2017/3/24 7:46,3.1,16,3.1,15,5.8,16
2017/3/24 7:47,2.9,1,3.1,15,5.2,16
2017/3/24 7:48,2.9,16,3,15,10.8,15
2017/3/24 7:49,2.7,16,2.9,16,7.8,14
2017/3/24 7:50,3,16,3,16,9.4,15
2017/3/24 7:51,3.5,16,3.5,15,11.5,14
2017/3/24 7:52,3.9,16,3.9,16,9.8,15
2017/3/24 7:53,4.2,16,4.2,16,7.1,16
2017/3/24 7:54,4.1,16,4.2,16,3.9,15
2017/3/24 7:55,4,15,4.1,16,8.3,14
2017/3/24 7:56,4,15,4.1,16,7.9,15
2017/3/24 7:57,4.2,15,4.2,16,6.8,16
2017/3/24 7:58,4,15,4.2,16,5.8,16
2017/3/24 7:59,4.2,15,4.2,16,7.4,15
2017/3/24 8:00,4.3,15,4.3,15,10.9,15
2017/3/24 8:01,4.2,16,4.5,15,9.8,16
2017/3/24 8:02,3.8,16,4.2,15,5.6,3
2017/3/24 8:03,3.6,16,3.8,15,2,4
2017/3/24 8:04,3.9,16,3.9,15,7.5,15
2017/3/24 8:05,4,16,4,15,9.9,15
2017/3/24 8:06,3.9,16,4,15,8.7,15
2017/3/24 8:07,3.9,16,4,15,6.5,16
2017/3/24 8:08,4.1,16,4.1,15,8.4,16
2017/3/24 8:09,4.2,16,4.2,15,9.9,15
2017/3/24 8:10,4.1,16,4.2,15,7.6,14
2017/3/24 8:11,4.2,16,4.2,16,7.9,14
2017/3/24 8:12,4.3,16,4.3,16,6.4,14
2017/3/24 8:13,4.6,16,4.6,16,8.4,15
2017/3/24 8:14,4.4,15,4.6,16,6.5,16
2017/3/24 8:15,4.3,15,4.4,16,8.3,16
2017/3/24 8:16,4.2,15,4.3,16,7.4,16
2017/3/24 8:17,4.3,15,4.3,16,7.1,14
2017/3/24 8:18,4.2,15,4.4,16,9.1,14
2017/3/24 8:19,4.1,15,4.2,16,12.3,15
2017/3/24 8:20,4,15,4.1,16,8.4,14
2017/3/24 8:21,3.8,15,4,16,7.6,16
2017/3/24 8:22,3.7,15,3.8,16,7,15
2017/3/24 8:23,3.8,15,3.9,16,7.8,13
2017/3/24 8:24,3.8,15,3.8,15,5.1,16
2017/3/24 8:25,3.5,16,3.7,15,4.1,15
2017/3/24 8:26,3.5,16,3.6,15,5.1,16
2017/3/24 8:27,3.4,16,3.5,15,6.1,15
2017/3/24 8:28,3.5,16,3.5,15,6.4,16
2017/3/24 8:29,3.4,16,3.5,15,7.2,16
2017/3/24 8:30,3.4,16,3.4,15,6.8,16
2017/3/24 8:31,3.4,16,3.5,15,4.4,13
2017/3/24 8:32,3.4,16,3.4,15,5.4,15
2017/3/24 8:33,3.3,16,3.4,15,6.2,15
2017/3/24 8:34,3.4,16,3.5,15,6.8,15
2017/3/24 8:35,3.6,15,3.6,16,5.8,15
2017/3/24 8:36,3.5,15,3.6,15,3.2,15
2017/3/24 8:37,3.3,15,3.5,15,5.2,14
2017/3/24 8:38,3.5,15,3.5,15,11.1,16
2017/3/24 8:39,3.5,15,3.5,15,7.1,15
2017/3/24 8:40,3.5,15,3.5,15,7.8,15
2017/3/24 8:41,3.4,15,3.4,15,4.3,15
2017/3/24 8:42,3.6,15,3.6,15,7.5,16
2017/3/24 8:43,3.6,15,3.6,15,9.2,15
2017/3/24 8:44,3.7,15,3.7,15,7.7,15
2017/3/24 8:45,3.9,15,3.9,15,8.2,16
2017/3/24 8:46,4.2,15,4.2,16,8.3,16
2017/3/24 8:47,4.5,15,4.5,15,9.5,15
2017/3/24 8:48,4.1,15,4.5,15,5.6,15
2017/3/24 8:49,3.8,16,4.1,15,2.4,15
2017/3/24 8:50,3.5,16,3.7,15,5.5,16
2017/3/24 8:51,3.6,16,3.7,15,5.5,15
2017/3/24 8:52,3.3,16,3.6,15,5,15
2017/3/24 8:53,3.1,16,3.4,15,5.2,15
2017/3/24 8:54,3,16,3.1,15,9.4,15
2017/3/24 8:55,2.7,16,3,15,6.4,15
2017/3/24 8:56,2.6,16,2.6,15,6.2,16
2017/3/24 8:57,2.4,16,2.6,15,5.1,16
2017/3/24 8:58,2.7,16,2.7,15,9.2,16
2017/3/24 8:59,3.1,16,3.1,16,8.5,2
2017/3/24 9:00,3.2,16,3.3,16,5.7,15
2017/3/24 9:01,3.3,16,3.3,16,7.2,15
2017/3/24 9:02,3.4,16,3.4,16,3.9,14
2017/3/24 9:03,3.5,16,3.5,16,7.6,14
2017/3/24 9:04,3.7,16,3.8,16,11,16
2017/3/24 9:05,3.7,16,3.7,16,6.8,15
2017/3/24 9:06,3.7,16,3.7,16,5.7,14
2017/3/24 9:07,3.8,15,3.9,15,7.5,15
2017/3/24 9:08,3.5,15,3.8,15,4.3,16
2017/3/24 9:09,3.5,15,3.5,15,9.7,15
2017/3/24 9:10,3.5,15,3.5,15,4.1,1
2017/3/24 9:11,3.6,15,3.6,15,11.3,14
2017/3/24 9:12,4,15,4,15,11.1,16
2017/3/24 9:13,4.2,15,4.3,15,9.1,16
2017/3/24 9:14,4.4,15,4.4,15,11.1,16
2017/3/24 9:15,4.7,15,4.7,15,10.3,16
2017/3/24 9:16,4.8,15,4.8,15,7.8,15
2017/3/24 9:17,4.7,15,4.8,15,5.8,16
2017/3/24 9:18,4.7,15,4.7,15,3.7,16
2017/3/24 9:19,4.8,15,4.8,15,9,14
2017/3/24 9:20,5.1,15,5.1,15,7.8,15
2017/3/24 9:21,5.2,15,5.3,15,8.3,16
2017/3/24 9:22,5,15,5.2,15,8.1,16
2017/3/24 9:23,4.8,15,4.9,15,7.5,16
2017/3/24 9:24,4.7,15,4.8,15,8.3,14
2017/3/24 9:25,4.4,15,4.7,15,8.5,16
2017/3/24 9:26,4.3,16,4.4,15,6.3,2
2017/3/24 9:27,4.3,15,4.4,15,5.7,14
2017/3/24 9:28,4.3,15,4.3,15,3.9,14
2017/3/24 9:29,4.1,16,4.3,15,10.8,14
2017/3/24 9:30,4.2,16,4.2,15,12.5,16
2017/3/24 9:31,4.2,16,4.3,15,9,16
2017/3/24 9:32,3.9,16,4.2,15,3.7,1
2017/3/24 9:33,3.9,16,4,15,8.6,16
2017/3/24 9:34,4,16,4,15,9.5,16
2017/3/24 9:35,4,15,4.1,15,8.3,14
2017/3/24 9:36,4.2,15,4.2,15,10.3,15
2017/3/24 9:37,4.7,15,4.7,15,15.1,16
2017/3/24 9:38,5,15,5,15,9.7,15
2017/3/24 9:39,4.9,15,5.2,15,6.4,15
2017/3/24 9:40,5.1,15,5.1,15,14.7,14
2017/3/24 9:41,5.3,15,5.3,15,11.7,15
2017/3/24 9:42,5.5,15,5.5,15,10.2,1
2017/3/24 9:43,5.6,15,5.6,15,8.2,15
2017/3/24 9:44,5.5,15,5.6,15,11,15
2017/3/24 9:45,5.6,15,5.6,15,9.2,14
2017/3/24 9:46,5.3,15,5.6,15,8.5,16
2017/3/24 9:47,4.9,15,5.3,15,6.4,14
2017/3/24 9:48,4.8,15,4.9,15,9.8,2
2017/3/24 9:49,5.1,16,5.1,15,8.7,1
2017/3/24 9:50,4.6,16,5.1,15,5,1
2017/3/24 9:51,4.2,16,4.6,15,4.9,6
2017/3/24 9:52,3.9,16,4.1,15,4.7,3
2017/3/24 9:53,3.6,16,3.8,15,3.7,12
2017/3/24 9:54,3.3,16,3.6,15,3.9,15
2017/3/24 9:55,3.2,1,3.3,15,7.2,16
2017/3/24 9:56,3.3,1,3.3,15,9.7,14
2017/3/24 9:57,3.7,1,3.7,16,11.4,15
2017/3/24 9:58,3.6,16,3.7,16,7.4,15
2017/3/24 9:59,3.3,16,3.6,16,7.6,15
2017/3/24 10:00,3.7,16,3.7,16,9.8,16
2017/3/24 10:01,4.1,15,4.1,16,13.3,14
2017/3/24 10:02,4.7,15,4.7,15,11.4,15
2017/3/24 10:03,5.2,15,5.2,15,10.6,15
2017/3/24 10:04,5.3,16,5.3,15,6.5,16
2017/3/24 10:05,5.2,16,5.4,16,7.7,1
2017/3/24 10:06,5.2,16,5.3,16,8.5,16
2017/3/24 10:07,5.1,16,5.3,16,8.6,15
2017/3/24 10:08,5.1,15,5.1,16,7.8,15
2017/3/24 10:09,4.9,15,5.1,16,2.9,14
2017/3/24 10:10,4.8,15,4.9,16,9.7,1
2017/3/24 10:11,4.8,15,4.8,16,8.6,16
2017/3/24 10:12,4.4,15,4.7,16,7.7,14
2017/3/24 10:13,4.3,15,4.3,16,10.3,15
2017/3/24 10:14,4.5,15,4.5,16,10.5,15
2017/3/24 10:15,4.6,15,4.6,15,7.7,15
2017/3/24 10:16,4.4,15,4.6,16,6.2,14
2017/3/24 10:17,4.1,15,4.5,16,4.8,13
2017/3/24 10:18,3.8,15,4,15,6.5,15
2017/3/24 10:19,4,15,4,15,9.1,15
2017/3/24 10:20,4.1,15,4.1,15,12.2,14
2017/3/24 10:21,4.2,15,4.2,15,11.7,15
2017/3/24 10:22,4.6,15,4.6,15,13.4,14
2017/3/24 10:23,4.6,15,4.7,15,9.2,15
2017/3/24 10:24,4.1,15,4.5,15,4.5,16
2017/3/24 10:25,4.3,15,4.3,15,13.6,16
2017/3/24 10:26,4.2,15,4.3,15,6.2,1
2017/3/24 10:27,4.5,15,4.5,15,8.3,15
2017/3/24 10:28,5.1,15,5.1,15,12.1,15
2017/3/24 10:29,5.1,15,5.1,15,6.9,16
2017/3/24 10:30,5,15,5.2,15,9,16
2017/3/24 10:31,4.9,15,5,15,9.9,16
2017/3/24 10:32,4.7,15,5,15,8.9,15
2017/3/24 10:33,4.7,15,4.7,15,7.9,15
2017/3/24 10:34,4.6,16,4.7,15,4.5,2
2017/3/24 10:35,4.3,16,4.7,15,5.1,16
2017/3/24 10:36,4.5,16,4.5,15,6.8,2
2017/3/24 10:37,4.3,16,4.5,15,6.9,2
2017/3/24 10:38,4,16,4.2,15,9.2,15
2017/3/24 10:39,4,16,4.1,15,6.8,14
2017/3/24 10:40,3.9,16,4,15,4.4,15
2017/3/24 10:41,3.6,16,3.9,15,4.4,15
2017/3/24 10:42,3.2,16,3.5,15,3.7,16
2017/3/24 10:43,2.8,16,3.1,15,3.8,3
2017/3/24 10:44,2.8,16,2.8,16,3.9,3
2017/3/24 10:45,2.7,16,2.8,16,3,3
2017/3/24 10:46,2.5,1,2.7,16,3.6,5
2017/3/24 10:47,2.4,1,2.5,16,3.6,2
2017/3/24 10:48,2,1,2.4,16,4.7,3
2017/3/24 10:49,1.9,1,2,16,5.1,3
2017/3/24 10:50,1.7,1,1.9,16,2.1,15
2017/3/24 10:51,1.6,1,1.7,16,4.3,16
2017/3/24 10:52,1.7,2,1.7,16,5.6,2
2017/3/24 10:53,1.7,2,1.8,16,3.9,3
2017/3/24 10:54,1.7,2,1.7,16,3.5,3
2017/3/24 10:55,1.7,2,1.7,1,3,16
2017/3/24 10:56,1.9,1,1.9,1,6.5,14